| time (UTC) | temp F | wind direction | speed MPH | gust MPH | rain 1hr in | rain 24hr in | rain mn in | humidity % | barometer mb |
| 20260904032619 | 73 | 164 | 4.0 | 8.0 | 0.00 | 0.00 | 0.00 | 24 | 1011.2 |
| 20260904031629 | 74 | 103 | 4.0 | 7.0 | 0.00 | 0.00 | 0.00 | 21 | 1011.2 |
| 20260904030619 | 72 | 103 | 3.0 | 6.0 | 0.00 | 0.00 | 0.00 | 23 | 1011.1 |
| 20260904025621 | 70 | 89 | 2.0 | 8.0 | 0.00 | 0.00 | 0.00 | 25 | 1011.0 |
| 20260904024614 | 68 | 160 | 4.0 | 6.0 | 0.00 | 0.00 | 0.00 | 31 | 1011.0 |
| 20260904023642 | 69 | 150 | 4.0 | 6.0 | 0.00 | 0.00 | 0.00 | 31 | 1011.0 |
| 20260904022629 | 70 | 355 | 3.0 | 5.0 | 0.00 | 0.00 | 0.00 | 32 | 1010.9 |
| 20260904021619 | 71 | 202 | 1.0 | 5.0 | 0.00 | 0.00 | 0.00 | 31 | 1010.9 |
| 20260904020614 | 72 | 227 | 0.0 | 3.0 | 0.00 | 0.00 | 0.00 | 27 | 1010.9 |
| 20260904015615 | 73 | 227 | 1.0 | 3.0 | 0.00 | 0.00 | 0.00 | 28 | 1010.9 |
| 20260904014626 | 74 | 223 | 1.0 | 4.0 | 0.00 | 0.00 | 0.00 | 25 | 1010.9 |
| 20260904013616 | 77 | 223 | 1.0 | 2.0 | 0.00 | 0.00 | 0.00 | 24 | 1010.8 |
| 20260904012631 | 80 | 223 | 2.0 | 5.0 | 0.00 | 0.00 | 0.00 | 19 | 1010.9 |
| 20260904011621 | 80 | 213 | 0.0 | 3.0 | 0.00 | 0.00 | 0.00 | 16 | 1010.8 |
| 20260904010612 | 80 | 168 | 2.0 | 9.0 | 0.00 | 0.00 | 0.00 | 16 | 1010.8 |
| 20260904005617 | 80 | 198 | 4.0 | 10.0 | 0.00 | 0.00 | 0.00 | 15 | 1011.0 |
| 20260904004648 | 80 | 124 | 3.0 | 9.0 | 0.00 | 0.00 | 0.00 | 16 | 1011.1 |
| 20260904003619 | 81 | 144 | 5.0 | 11.0 | 0.00 | 0.00 | 0.00 | 15 | 1011.2 |
| 20260904002618 | 81 | 165 | 7.0 | 17.0 | 0.00 | 0.00 | 0.00 | 14 | 1011.1 |
| 20260904001628 | 82 | 170 | 5.0 | 12.0 | 0.00 | 0.00 | 0.00 | 14 | 1011.3 |
| 20260904000623 | 82 | 192 | 9.0 | 21.0 | 0.00 | 0.00 | 0.00 | 14 | 1011.4 |
| 20260903235647 | 82 | 141 | 12.0 | 17.0 | 0.00 | 0.00 | 0.00 | 14 | 1011.4 |
| 20260903234617 | 82 | 163 | 10.0 | 18.0 | 0.00 | 0.00 | 0.00 | 13 | 1011.5 |
| 20260903233628 | 82 | 167 | 14.0 | 18.0 | 0.00 | 0.00 | 0.00 | 12 | 1011.6 |
| 20260903232623 | 82 | 150 | 10.0 | 21.0 | 0.00 | 0.00 | 0.00 | 13 | 1011.8 |
| 20260903231614 | 82 | 149 | 11.0 | 22.0 | 0.00 | 0.00 | 0.00 | 14 | 1011.9 |
| 20260903230646 | 82 | 139 | 11.0 | 20.0 | 0.00 | 0.00 | 0.00 | 13 | 1011.9 |
| 20260903225629 | 82 | 204 | 12.0 | 21.0 | 0.00 | 0.00 | 0.00 | 14 | 1011.8 |
| 20260903224644 | 81 | 177 | 8.0 | 19.0 | 0.00 | 0.00 | 0.00 | 14 | 1011.9 |
| 20260903223615 | 81 | 185 | 12.0 | 24.0 | 0.00 | 0.00 | 0.00 | 14 | 1012.0 |
| 20260903222625 | 81 | 180 | 10.0 | 17.0 | 0.00 | 0.00 | 0.00 | 14 | 1012.3 |
| 20260903221616 | 82 | 134 | 6.0 | 16.0 | 0.00 | 0.00 | 0.00 | 13 | 1012.3 |
| 20260903220629 | 81 | 172 | 9.0 | 13.0 | 0.00 | 0.00 | 0.00 | 14 | 1012.6 |
| 20260903215612 | 81 | 147 | 6.0 | 20.0 | 0.00 | 0.00 | 0.00 | 13 | 1012.6 |
| 20260903214623 | 81 | 181 | 7.0 | 14.0 | 0.00 | 0.00 | 0.00 | 14 | 1012.6 |
| 20260903213613 | 80 | 170 | 11.0 | 16.0 | 0.00 | 0.00 | 0.00 | 14 | 1012.7 |
| 20260903212626 | 80 | 192 | 13.0 | 18.0 | 0.00 | 0.00 | 0.00 | 14 | 1013.1 |
| 20260903211616 | 81 | 164 | 12.0 | 21.0 | 0.00 | 0.00 | 0.00 | 14 | 1013.1 |
| 20260903210625 | 81 | 241 | 10.0 | 15.0 | 0.00 | 0.00 | 0.00 | 14 | 1013.1 |
| 20260903205649 | 80 | 196 | 9.0 | 16.0 | 0.00 | 0.00 | 0.00 | 15 | 1013.4 |
| 20260903204621 | 80 | 193 | 11.0 | 19.0 | 0.00 | 0.00 | 0.00 | 14 | 1013.5 |
| 20260903203651 | 79 | 217 | 15.0 | 20.0 | 0.00 | 0.00 | 0.00 | 14 | 1013.7 |
| 20260903202620 | 79 | 207 | 11.0 | 16.0 | 0.00 | 0.00 | 0.00 | 14 | 1013.8 |
| 20260903201629 | 79 | 199 | 10.0 | 14.0 | 0.00 | 0.00 | 0.00 | 16 | 1013.9 |
| 20260903200622 | 79 | 180 | 5.0 | 24.0 | 0.00 | 0.00 | 0.00 | 15 | 1013.9 |
| 20260903195625 | 79 | 188 | 8.0 | 20.0 | 0.00 | 0.00 | 0.00 | 16 | 1014.1 |
| 20260903194615 | 78 | 213 | 7.0 | 16.0 | 0.00 | 0.00 | 0.00 | 16 | 1014.1 |
| 20260903193646 | 78 | 238 | 10.0 | 16.0 | 0.00 | 0.00 | 0.00 | 16 | 1014.3 |
| 20260903192619 | 78 | 194 | 7.0 | 18.0 | 0.00 | 0.00 | 0.00 | 16 | 1014.3 |
| 20260903191629 | 78 | 174 | 6.0 | 18.0 | 0.00 | 0.00 | 0.00 | 15 | 1014.5 |
| 20260903190639 | 78 | 184 | 12.0 | 16.0 | 0.00 | 0.00 | 0.00 | 16 | 1014.8 |
| 20260903185620 | 78 | 188 | 11.0 | 19.0 | 0.00 | 0.00 | 0.00 | 17 | 1014.7 |
| 20260903184614 | 77 | 190 | 12.0 | 17.0 | 0.00 | 0.00 | 0.00 | 15 | 1014.8 |
| 20260903183625 | 77 | 209 | 10.0 | 16.0 | 0.00 | 0.00 | 0.00 | 16 | 1015.0 |
| 20260903182616 | 77 | 179 | 11.0 | 15.0 | 0.00 | 0.00 | 0.00 | 16 | 1015.1 |
| 20260903181627 | 77 | 179 | 11.0 | 18.0 | 0.00 | 0.00 | 0.00 | 17 | 1015.2 |
| 20260903180646 | 76 | 92 | 3.0 | 6.0 | 0.00 | 0.00 | 0.00 | 20 | 1015.2 |
| 20260903175612 | 75 | 153 | 3.0 | 10.0 | 0.00 | 0.00 | 0.00 | 20 | 1015.3 |
| 20260903174624 | 73 | 318 | 4.0 | 11.0 | 0.00 | 0.00 | 0.00 | 21 | 1015.3 |
| 20260903173615 | 71 | 295 | 4.0 | 8.0 | 0.00 | 0.00 | 0.00 | 24 | 1015.5 |
| 20260903172630 | 69 | 236 | 1.0 | 6.0 | 0.00 | 0.00 | 0.00 | 40 | 1015.6 |
| 20260903171642 | 67 | 246 | 2.0 | 4.0 | 0.00 | 0.00 | 0.00 | 42 | 1015.8 |
| 20260903170632 | 66 | 246 | 2.0 | 4.0 | 0.00 | 0.00 | 0.00 | 44 | 1015.8 |
| 20260903165634 | 65 | 245 | 3.0 | 4.0 | 0.00 | 0.00 | 0.00 | 44 | 1015.8 |
| 20260903164625 | 64 | 245 | 3.0 | 5.0 | 0.00 | 0.00 | 0.00 | 44 | 1016.0 |
| 20260903163620 | 63 | 243 | 3.0 | 4.0 | 0.00 | 0.00 | 0.00 | 46 | 1015.9 |
| 20260903162631 | 61 | 243 | 1.0 | 4.0 | 0.00 | 0.00 | 0.00 | 47 | 1016.0 |
| 20260903161622 | 61 | 243 | 1.0 | 4.0 | 0.00 | 0.00 | 0.00 | 49 | 1016.2 |
| 20260903160637 | 60 | 242 | 2.0 | 4.0 | 0.00 | 0.00 | 0.00 | 51 | 1016.2 |
| 20260903155640 | 59 | 238 | 2.0 | 4.0 | 0.00 | 0.00 | 0.00 | 51 | 1016.2 |
| 20260903154651 | 59 | 237 | 2.0 | 3.0 | 0.00 | 0.00 | 0.00 | 53 | 1016.3 |
| 20260903153620 | 58 | 238 | 1.0 | 2.0 | 0.00 | 0.00 | 0.00 | 54 | 1016.4 |
| 20260903152612 | 57 | 238 | 0.0 | 1.0 | 0.00 | 0.00 | 0.00 | 57 | 1016.5 |
| 20260903151627 | 55 | 238 | 0.0 | 2.0 | 0.00 | 0.00 | 0.00 | 64 | 1016.6 |
| 20260903150617 | 54 | 238 | 0.0 | 2.0 | 0.00 | 0.00 | 0.00 | 66 | 1016.7 |
| 20260903145621 | 53 | 238 | 1.0 | 3.0 | 0.00 | 0.00 | 0.00 | 67 | 1016.7 |
| 20260903144616 | 53 | 238 | 2.0 | 3.0 | 0.00 | 0.00 | 0.00 | 66 | 1016.7 |
| 20260903143648 | 52 | 238 | 0.0 | 2.0 | 0.00 | 0.00 | 0.00 | 69 | 1016.7 |
| 20260903142618 | 51 | 238 | 0.0 | 2.0 | 0.00 | 0.00 | 0.00 | 73 | 1016.7 |
| 20260903141630 | 49 | 238 | 1.0 | 3.0 | 0.00 | 0.00 | 0.00 | 77 | 1016.6 |
| 20260903140625 | 48 | 238 | 0.0 | 3.0 | 0.00 | 0.00 | 0.00 | 79 | 1016.7 |
| 20260903135629 | 46 | 238 | 0.0 | 3.0 | 0.00 | 0.00 | 0.00 | 80 | 1016.7 |
| 20260903134620 | 46 | 238 | 0.0 | 2.0 | 0.00 | 0.00 | 0.00 | 80 | 1016.6 |
| 20260903133651 | 46 | 238 | 1.0 | 3.0 | 0.00 | 0.00 | 0.00 | 80 | 1016.4 |
| 20260903132625 | 45 | 238 | 0.0 | 1.0 | 0.00 | 0.00 | 0.00 | 80 | 1016.2 |
| 20260903131617 | 46 | 238 | 2.0 | 4.0 | 0.00 | 0.00 | 0.00 | 79 | 1016.2 |
| 20260903130627 | 46 | 238 | 1.0 | 2.0 | 0.00 | 0.00 | 0.00 | 80 | 1016.1 |
| 20260903125630 | 46 | 238 | 0.0 | 4.0 | 0.00 | 0.00 | 0.00 | 79 | 1016.0 |
| 20260903124627 | 47 | 238 | 0.0 | 1.0 | 0.00 | 0.00 | 0.00 | 79 | 1015.7 |
| 20260903123639 | 47 | 238 | 0.0 | 2.0 | 0.00 | 0.00 | 0.00 | 77 | 1015.8 |
| 20260903122628 | 48 | 238 | 0.0 | 2.0 | 0.00 | 0.00 | 0.00 | 76 | 1015.7 |
| 20260903121618 | 48 | 238 | 0.0 | 2.0 | 0.00 | 0.00 | 0.00 | 75 | 1015.6 |
| 20260903120613 | 48 | 238 | 0.0 | 2.0 | 0.00 | 0.00 | 0.00 | 73 | 1015.6 |
| 20260903115615 | 48 | 238 | 0.0 | 2.0 | 0.00 | 0.00 | 0.00 | 73 | 1015.6 |
| 20260903114626 | 48 | 238 | 0.0 | 2.0 | 0.00 | 0.00 | 0.00 | 73 | 1015.4 |
| 20260903113617 | 49 | 238 | 1.0 | 2.0 | 0.00 | 0.00 | 0.00 | 74 | 1015.3 |
| 20260903112613 | 49 | 238 | 0.0 | 2.0 | 0.00 | 0.00 | 0.00 | 74 | 1015.4 |
| 20260903111625 | 49 | 238 | 0.0 | 3.0 | 0.00 | 0.00 | 0.00 | 73 | 1015.4 |
| 20260903110615 | 50 | 237 | 2.0 | 4.0 | 0.00 | 0.00 | 0.00 | 71 | 1015.3 |
| 20260903105625 | 51 | 237 | 0.0 | 8.0 | 0.00 | 0.00 | 0.00 | 69 | 1015.1 |
| 20260903104638 | 51 | 5 | 2.0 | 5.0 | 0.00 | 0.00 | 0.00 | 68 | 1015.0 |
| 20260903103627 | 52 | 271 | 1.0 | 3.0 | 0.00 | 0.00 | 0.00 | 70 | 1015.2 |
| 20260903102616 | 52 | 271 | 1.0 | 2.0 | 0.00 | 0.00 | 0.00 | 69 | 1015.0 |
| 20260903101625 | 52 | 271 | 0.0 | 1.0 | 0.00 | 0.00 | 0.00 | 70 | 1014.9 |
| 20260903100618 | 53 | 271 | 2.0 | 6.0 | 0.00 | 0.00 | 0.00 | 70 | 1015.0 |
| 20260903095620 | 54 | 259 | 3.0 | 8.0 | 0.00 | 0.00 | 0.00 | 65 | 1014.8 |
| 20260903094629 | 56 | 200 | 2.0 | 10.0 | 0.00 | 0.00 | 0.00 | 59 | 1014.5 |
| 20260903093619 | 56 | 159 | 3.0 | 5.0 | 0.00 | 0.00 | 0.00 | 60 | 1014.5 |
| 20260903092614 | 56 | 159 | 1.0 | 5.0 | 0.00 | 0.00 | 0.00 | 59 | 1014.6 |
| 20260903091624 | 56 | 159 | 0.0 | 2.0 | 0.00 | 0.00 | 0.00 | 58 | 1014.7 |
| 20260903090614 | 57 | 159 | 2.0 | 5.0 | 0.00 | 0.00 | 0.00 | 56 | 1014.8 |
| 20260903085620 | 57 | 158 | 0.0 | 3.0 | 0.00 | 0.00 | 0.00 | 54 | 1014.6 |
| 20260903084629 | 57 | 158 | 3.0 | 6.0 | 0.00 | 0.00 | 0.00 | 54 | 1014.7 |
| 20260903083620 | 57 | 158 | 5.0 | 7.0 | 0.00 | 0.00 | 0.00 | 55 | 1014.8 |
| 20260903082631 | 56 | 198 | 2.0 | 3.0 | 0.00 | 0.00 | 0.00 | 60 | 1014.8 |
| 20260903081646 | 56 | 198 | 1.0 | 1.0 | 0.00 | 0.00 | 0.00 | 61 | 1014.8 |
| 20260903080614 | 55 | 198 | 2.0 | 3.0 | 0.00 | 0.00 | 0.00 | 62 | 1014.9 |
| 20260903075616 | 55 | 198 | 0.0 | 3.0 | 0.00 | 0.00 | 0.00 | 64 | 1014.8 |
| 20260903074627 | 56 | 198 | 0.0 | 2.0 | 0.00 | 0.00 | 0.00 | 65 | 1014.8 |
| 20260903073621 | 55 | 198 | 1.0 | 2.0 | 0.00 | 0.00 | 0.00 | 63 | 1014.7 |
| 20260903072650 | 55 | 198 | 1.0 | 2.0 | 0.00 | 0.00 | 0.00 | 65 | 1014.5 |
| 20260903071618 | 54 | 198 | 0.0 | 1.0 | 0.00 | 0.00 | 0.00 | 67 | 1014.6 |
| 20260903070629 | 54 | 198 | 0.0 | 2.0 | 0.00 | 0.00 | 0.00 | 66 | 1014.5 |
| 20260903065617 | 53 | 198 | 1.0 | 2.0 | 0.00 | 0.00 | 0.00 | 65 | 1014.5 |
| 20260903064628 | 54 | 198 | 0.0 | 4.0 | 0.00 | 0.00 | 0.00 | 67 | 1014.5 |
| 20260903063619 | 55 | 175 | 2.0 | 4.0 | 0.00 | 0.00 | 0.00 | 65 | 1014.5 |
| 20260903062651 | 57 | 155 | 1.0 | 5.0 | 0.00 | 0.00 | 0.00 | 60 | 1014.3 |
| 20260903061625 | 57 | 153 | 2.0 | 3.0 | 0.00 | 0.00 | 0.00 | 52 | 1014.1 |
| 20260903060622 | 57 | 153 | 0.0 | 2.0 | 0.00 | 0.00 | 0.00 | 53 | 1014.0 |
| 20260903055626 | 57 | 153 | 0.0 | 3.0 | 0.00 | 0.00 | 0.00 | 54 | 1014.0 |
| 20260903054616 | 57 | 153 | 0.0 | 2.0 | 0.00 | 0.00 | 0.00 | 52 | 1014.0 |
| 20260903053645 | 57 | 153 | 0.0 | 3.0 | 0.00 | 0.00 | 0.00 | 52 | 1014.0 |
| 20260903052617 | 58 | 153 | 0.0 | 3.0 | 0.00 | 0.00 | 0.00 | 52 | 1014.0 |
| 20260903051628 | 58 | 153 | 1.0 | 6.0 | 0.00 | 0.00 | 0.00 | 52 | 1014.0 |
| 20260903050618 | 59 | 148 | 0.0 | 3.0 | 0.00 | 0.00 | 0.00 | 48 | 1013.9 |
| 20260903045619 | 58 | 148 | 0.0 | 3.0 | 0.00 | 0.00 | 0.00 | 53 | 1014.0 |
| 20260903044613 | 59 | 148 | 1.0 | 3.0 | 0.00 | 0.00 | 0.00 | 56 | 1014.1 |
| 20260903043625 | 60 | 148 | 1.0 | 5.0 | 0.00 | 0.00 | 0.00 | 47 | 1013.9 |
| 20260903042637 | 60 | 149 | 2.0 | 3.0 | 0.00 | 0.00 | 0.00 | 54 | 1013.9 |
| 20260903041626 | 61 | 149 | 1.0 | 3.0 | 0.00 | 0.00 | 0.00 | 48 | 1013.8 |
| 20260903040618 | 60 | 149 | 0.0 | 2.0 | 0.00 | 0.00 | 0.00 | 51 | 1013.7 |
| 20260903035621 | 61 | 149 | 0.0 | 2.0 | 0.00 | 0.00 | 0.00 | 51 | 1013.6 |
| 20260903034612 | 63 | 149 | 1.0 | 3.0 | 0.00 | 0.00 | 0.00 | 50 | 1013.4 |
| 20260903033641 | 64 | 148 | 0.0 | 3.0 | 0.00 | 0.00 | 0.00 | 44 | 1013.2 |